COSMOS 2251 DEB, 34875

Orbit data source: Space-Track

COSMOS 2251 DEB, 34875 is space debris in LEO originally from a launch on Wed, 16 Jun 1993 UTC launched from the Plesetsk Missile And Space Complex (PKMTR). The debris from Iridium 33, an American commercial communications satellite, has been tracked extensively since its accidental collision with the defunct Russian satellite Cosmos 2251 in 2009. This event, occurring at high speed in low Earth orbit (LEO), generated thousands of pieces of space debris, significantly increasing the risk of further collisions. The Iridium 33 debris cloud has impacted space traffic management and orbital debris mitigation strategies, making it a subject of ongoing study in space situational awareness.

Loading next visibility...
Identifier
34875, 1993-036ACN
Orbit
LEO
Country
Flag of CISCIS
Related business
Manufacturer
Unknown
Mission
Spacecraft
Bus & Motor
Unknown
Mass
Unknown
Launch date (UTC)
1993-06-16 (33 years ago)
Launch vehicle
Unknown
Launch site
Plesetsk Missile And Space Complex (PKMTR)
Object type
Payload
Rocket body
Debris
Shape & HBR
Unknown shape, 0.1 m
Radar Cross Section
Small (<0.1 m²)

Expand to show TLE details & history
Last TLE update: 9 hours ago

TLE from 9 hours ago
0 COSMOS 2251 DEB
1 34875U 93036ACN 26145.16927872  .00000856  00000-0  23024-3 0  9991
2 34875  74.0438 211.8612 0016414 294.8596  94.8212 14.49467470901232
Epoch: 2026-05-25T04:03Z
TLE epoch observation values (Epoch: 2026-05-25T04:03:45.681Z)
Latitude
28.66092°
Longitude
-82.89744°
Altitude
731.629 km
Speed
7.492 km/s
True Right ascension
14h 43m 12s
True Declination
28° 30' 57"
Sunlit
Object was in full shadow at epoch
Visualization orbit readout
Latitude
Unknown
Longitude
Unknown
Altitude
Unknown
Speed
Unknown
Apparent Right ascension
Unknown
Apparent Declination
Unknown
Sunlit
N/A
Visualization observer readout
Local Sidereal Time
22:38:12
Azimuth
Unknown
Elevation
Unknown
Doppler factor
Unknown
Orbital elements
Apogee altitude
736.656 km
Perigee altitude
713.338 km
Semi-major axis
7,103.134 km
Eccentricity
0.00164
Inclination
74.0438°
RAAN
211.8612°
Arg. of periapsis
294.8596°
True anomaly
95.00859°
Mean anomaly
94.8212°
Eccentric anomaly
94.9149°
Mean motion
3.6255 °/min
Orbital period
99.3 mins
BSTAR
0.00023024
Loading maneuver chart data...
Computing Atmospheric mass density...
Loading historical data...
Loading historical data...
Loading historical data...
Loading historical data...
Loading historical data...
Loading historical data...
Loading historical data...

Documentation

Showing up to 5 results
|